,,,PA_Meas_PMT16A,,PR_Meas_QMR101_102,,RH_Meas_QMH101,,SR_Meas_QMS101,,TA_Meas_QMH101,,GenWind,,GenWind,
date,time,status,PA,status,PR,status,RH,status,SR,status,TA,status,DirAvg,status,SpdAvg,
2014-10-27, 00:00:04,VALID,1011.21,VALID,0,INVALID,135.67,VALID,0,VALID,23.5771,VALID,62,VALID,0,
2014-10-27, 00:01:04,VALID,1011.21,VALID,0,INVALID,135.616,VALID,0,VALID,23.5771,VALID,62,VALID,0,
2014-10-27, 00:02:04,VALID,1011.21,VALID,0,INVALID,135.632,VALID,0,VALID,23.5771,VALID,62,VALID,0,
2014-10-27, 00:03:04,VALID,1011.25,VALID,0,INVALID,135.586,VALID,0,VALID,23.5771,VALID,62,VALID,0,
2014-10-27, 00:04:04,VALID,1011.27,VALID,0,INVALID,135.578,VALID,0,VALID,23.5771,VALID,62,VALID,0,
2014-10-27, 00:05:04,VALID,1011.28,VALID,0,INVALID,135.586,VALID,0,VALID,23.5558,VALID,62,VALID,0,
2014-10-27, 00:06:04,VALID,1011.28,VALID,0,INVALID,135.594,VALID,0,VALID,23.5771,VALID,62,VALID,0,
2014-10-27, 00:07:04,VALID,1011.28,VALID,0,INVALID,135.609,VALID,0,VALID,23.5771,VALID,62,VALID,0,
2014-10-27, 00:08:04,VALID,1011.27,VALID,0,INVALID,135.609,VALID,0,VALID,23.5771,VALID,62,VALID,0,
2014-10-27, 00:09:04,VALID,1011.3,VALID,0,INVALID,135.716,VALID,0,VALID,23.5771,VALID,62,VALID,0,
2014-10-27, 00:10:04,VALID,1011.29,VALID,0,INVALID,135.769,VALID,0,VALID,23.5966,VALID,62,VALID,0,
2014-10-27, 00:11:04,VALID,1011.28,VALID,0,INVALID,135.822,VALID,0,VALID,23.5966,VALID,62,VALID,0,
2014-10-27, 00:12:04,VALID,1011.27,VALID,0,INVALID,136.013,VALID,0,VALID,23.5771,VALID,62,VALID,0,
2014-10-27, 00:13:04,VALID,1011.27,VALID,0,INVALID,136.127,VALID,0,VALID,23.5771,VALID,62,VALID,0,
2014-10-27, 00:14:04,VALID,1011.24,VALID,0,INVALID,136.226,VALID,0,VALID,23.5966,VALID,62,VALID,0,
2014-10-27, 00:15:04,VALID,1011.21,VALID,0,INVALID,136.257,VALID,0,VALID,23.5771,VALID,62,VALID,0,
2014-10-27, 00:16:04,VALID,1011.19,VALID,0,INVALID,136.379,VALID,0,VALID,23.5576,VALID,62,VALID,0,
2014-10-27, 00:17:04,VALID,1011.2,VALID,0,INVALID,136.501,VALID,0,VALID,23.5576,VALID,62,VALID,0,
2014-10-27, 00:18:04,VALID,1011.21,VALID,0,INVALID,136.577,VALID,0,VALID,23.5381,VALID,62,VALID,0,
2014-10-27, 00:19:04,VALID,1011.22,VALID,0,INVALID,136.684,VALID,0,VALID,23.5576,VALID,62,VALID,0,
2014-10-27, 00:20:04,VALID,1011.22,VALID,0,INVALID,136.646,VALID,0,VALID,23.5576,VALID,62,VALID,0,
2014-10-27, 00:21:04,VALID,1011.23,VALID,0,INVALID,136.707,VALID,0,VALID,23.5576,VALID,62,VALID,0,
2014-10-27, 00:22:04,VALID,1011.25,VALID,0,INVALID,136.699,VALID,0,VALID,23.5576,VALID,62,VALID,0,
2014-10-27, 00:23:04,VALID,1011.21,VALID,0,INVALID,136.692,VALID,0,VALID,23.5771,VALID,62,VALID,0,
2014-10-27, 00:24:04,VALID,1011.19,VALID,0,INVALID,136.707,VALID,0,VALID,23.5576,VALID,62,VALID,0,
2014-10-27, 00:25:04,VALID,1011.18,VALID,0,INVALID,136.76,VALID,0,VALID,23.5771,VALID,62,VALID,0,
2014-10-27, 00:26:04,VALID,1011.13,VALID,0,INVALID,136.776,VALID,0,VALID,23.5966,VALID,62,VALID,0,
2014-10-27, 00:27:04,VALID,1011.1,VALID,0,INVALID,136.76,VALID,0,VALID,23.5966,VALID,62,VALID,0,
2014-10-27, 00:28:04,VALID,1011.08,VALID,0,INVALID,136.776,VALID,0,VALID,23.5771,VALID,62,VALID,0,
2014-10-27, 00:29:04,VALID,1011.04,VALID,0,INVALID,136.974,VALID,0,VALID,23.5576,VALID,62,VALID,0,
2014-10-27, 00:30:04,VALID,1011.01,VALID,0,INVALID,137.134,VALID,0,VALID,23.5576,VALID,62,VALID,0,
2014-10-27, 00:31:04,VALID,1010.98,VALID,0,INVALID,137.172,VALID,0,VALID,23.5771,VALID,62,VALID,0,
2014-10-27, 00:32:04,VALID,1010.96,VALID,0,INVALID,137.218,VALID,0,VALID,23.5576,VALID,62,VALID,0,
2014-10-27, 00:33:04,VALID,1010.9,VALID,0,INVALID,137.21,VALID,0.112112,VALID,23.5363,VALID,62,VALID,0,
2014-10-27, 00:34:04,VALID,1010.86,VALID,0,INVALID,137.233,VALID,0.112112,VALID,23.5363,VALID,62,VALID,0,
2014-10-27, 00:35:04,VALID,1010.84,VALID,0,INVALID,137.21,VALID,0,VALID,23.5363,VALID,62,VALID,0,
2014-10-27, 00:36:04,VALID,1010.81,VALID,0,INVALID,137.164,VALID,0.112112,VALID,23.5381,VALID,62,VALID,0,
2014-10-27, 00:37:04,VALID,1010.77,VALID,0,INVALID,137.134,VALID,0,VALID,23.5381,VALID,62,VALID,0,
2014-10-27, 00:38:04,VALID,1010.75,VALID,0,INVALID,137.042,VALID,0,VALID,23.5381,VALID,62,VALID,0,
2014-10-27, 00:39:04,VALID,1010.75,VALID,0,INVALID,136.959,VALID,0,VALID,23.5576,VALID,62,VALID,0,
2014-10-27, 00:40:04,VALID,1010.73,VALID,0,INVALID,136.89,VALID,0,VALID,23.5381,VALID,62,VALID,0,
2014-10-27, 00:41:04,VALID,1010.71,VALID,0,INVALID,136.844,VALID,0,VALID,23.5381,VALID,62,VALID,0,
2014-10-27, 00:42:04,VALID,1010.7,VALID,0,INVALID,136.821,VALID,0,VALID,23.5381,VALID,62,VALID,0,
2014-10-27, 00:43:04,VALID,1010.71,VALID,0,INVALID,136.783,VALID,0.112112,VALID,23.5381,VALID,62,VALID,0,
2014-10-27, 00:44:04,VALID,1010.73,VALID,0,INVALID,136.76,VALID,0,VALID,23.5186,VALID,62,VALID,0,
2014-10-27, 00:45:04,VALID,1010.71,VALID,0,INVALID,136.73,VALID,0.112112,VALID,23.5186,VALID,62,VALID,0,
2014-10-27, 00:46:04,VALID,1010.71,VALID,0,INVALID,136.699,VALID,0,VALID,23.5381,VALID,62,VALID,0,
2014-10-27, 00:47:04,VALID,1010.71,VALID,0,INVALID,136.661,VALID,0,VALID,23.5169,VALID,62,VALID,0,
2014-10-27, 00:48:04,VALID,1010.73,VALID,0,INVALID,136.623,VALID,0.112112,VALID,23.5169,VALID,62,VALID,0,
2014-10-27, 00:49:04,VALID,1010.74,VALID,0,INVALID,136.592,VALID,0,VALID,23.5169,VALID,62,VALID,0,
2014-10-27, 00:50:04,VALID,1010.73,VALID,0,INVALID,136.539,VALID,0.112112,VALID,23.5169,VALID,62,VALID,0,
2014-10-27, 00:51:04,VALID,1010.71,VALID,0,INVALID,136.539,VALID,0,VALID,23.5363,VALID,62,VALID,0,
2014-10-27, 00:52:04,VALID,1010.74,VALID,0,INVALID,136.493,VALID,0.112112,VALID,23.5381,VALID,62,VALID,0,
2014-10-27, 00:53:04,VALID,1010.71,VALID,0,INVALID,136.44,VALID,0.112112,VALID,23.5169,VALID,62,VALID,0,
2014-10-27, 00:54:04,VALID,1010.7,VALID,0,INVALID,136.356,VALID,0,VALID,23.5381,VALID,62,VALID,0,
2014-10-27, 00:55:04,VALID,1010.69,VALID,0,INVALID,136.364,VALID,0,VALID,23.5169,VALID,62,VALID,0,
2014-10-27, 00:56:04,VALID,1010.67,VALID,0,INVALID,136.287,VALID,0,VALID,23.5169,VALID,112,VALID,0,
2014-10-27, 00:57:04,VALID,1010.67,VALID,0,INVALID,136.257,VALID,0,VALID,23.5576,VALID,112,VALID,0,
2014-10-27, 00:58:04,VALID,1010.67,VALID,0,INVALID,136.196,VALID,0,VALID,23.5576,VALID,112,VALID,0,
2014-10-27, 00:59:04,VALID,1010.66,VALID,0,INVALID,136.127,VALID,0.112112,VALID,23.5363,VALID,112,VALID,0,
2014-10-27, 01:00:04,VALID,1010.66,VALID,0,INVALID,136.097,VALID,0.112112,VALID,23.5576,VALID,112,VALID,0,
2014-10-27, 01:01:04,VALID,1010.65,VALID,0,INVALID,136.089,VALID,0,VALID,23.5363,VALID,112,VALID,0,
2014-10-27, 01:02:04,VALID,1010.63,VALID,0,INVALID,136.074,VALID,0.112112,VALID,23.5363,VALID,112,VALID,0,
2014-10-27, 01:03:04,VALID,1010.64,VALID,0,INVALID,136.028,VALID,0,VALID,23.5363,VALID,112,VALID,0,
2014-10-27, 01:04:04,VALID,1010.62,VALID,0,INVALID,136.051,VALID,0.112112,VALID,23.5576,VALID,112,VALID,0,
2014-10-27, 01:05:04,VALID,1010.59,VALID,0,INVALID,136.036,VALID,0.112112,VALID,23.5169,VALID,112,VALID,0,
2014-10-27, 01:06:04,VALID,1010.56,VALID,0,INVALID,135.998,VALID,0.112112,VALID,23.5363,VALID,112,VALID,0,
2014-10-27, 01:07:04,VALID,1010.52,VALID,0,INVALID,135.96,VALID,0,VALID,23.5576,VALID,112,VALID,0,
2014-10-27, 01:08:04,VALID,1010.51,VALID,0,INVALID,135.929,VALID,0.112112,VALID,23.5363,VALID,112,VALID,0,
2014-10-27, 01:09:04,VALID,1010.48,VALID,0,INVALID,135.921,VALID,0.112112,VALID,23.5576,VALID,112,VALID,0,
2014-10-27, 01:10:04,VALID,1010.48,VALID,0,INVALID,135.853,VALID,0.112112,VALID,23.5363,VALID,112,VALID,0,
2014-10-27, 01:11:04,VALID,1010.43,VALID,0,INVALID,135.853,VALID,0.112112,VALID,23.5558,VALID,112,VALID,0,
2014-10-27, 01:12:04,VALID,1010.42,VALID,0,INVALID,135.86,VALID,0,VALID,23.5576,VALID,112,VALID,0,
2014-10-27, 01:13:04,VALID,1010.41,VALID,0,INVALID,135.906,VALID,0,VALID,23.5363,VALID,112,VALID,0,
2014-10-27, 01:14:04,VALID,1010.42,VALID,0,INVALID,135.914,VALID,0.112112,VALID,23.5576,VALID,112,VALID,0,
2014-10-27, 01:15:04,VALID,1010.38,VALID,0,INVALID,135.914,VALID,0,VALID,23.5169,VALID,112,VALID,0,
2014-10-27, 01:16:04,VALID,1010.39,VALID,0,INVALID,135.944,VALID,0,VALID,23.5363,VALID,112,VALID,0,
2014-10-27, 01:17:04,VALID,1010.38,VALID,0,INVALID,135.937,VALID,0,VALID,23.5381,VALID,112,VALID,0,
2014-10-27, 01:18:04,VALID,1010.37,VALID,0,INVALID,135.967,VALID,0,VALID,23.5576,VALID,112,VALID,0,
2014-10-27, 01:19:04,VALID,1010.36,VALID,0,INVALID,135.967,VALID,0.112112,VALID,23.5363,VALID,112,VALID,0,
2014-10-27, 01:20:04,VALID,1010.36,VALID,0,INVALID,135.967,VALID,0.112112,VALID,23.5363,VALID,112,VALID,0,
2014-10-27, 01:21:04,VALID,1010.36,VALID,0,INVALID,136.021,VALID,0,VALID,23.5576,VALID,112,VALID,0,
2014-10-27, 01:22:04,VALID,1010.35,VALID,0,INVALID,136.043,VALID,0,VALID,23.5576,VALID,112,VALID,0,
2014-10-27, 01:23:04,VALID,1010.35,VALID,0,INVALID,136.082,VALID,0.112112,VALID,23.5576,VALID,112,VALID,0,
2014-10-27, 01:24:04,VALID,1010.33,VALID,0,INVALID,136.173,VALID,0,VALID,23.5576,VALID,112,VALID,0,
2014-10-27, 01:25:04,VALID,1010.3,VALID,0,INVALID,136.188,VALID,0,VALID,23.5363,VALID,112,VALID,0,
2014-10-27, 01:26:04,VALID,1010.28,VALID,0,INVALID,136.219,VALID,0,VALID,23.5576,VALID,112,VALID,0,
2014-10-27, 01:27:04,VALID,1010.26,VALID,0,INVALID,136.265,VALID,0,VALID,23.5576,VALID,112,VALID,0,
2014-10-27, 01:28:04,VALID,1010.27,VALID,0,INVALID,136.257,VALID,0,VALID,23.5363,VALID,112,VALID,0,
2014-10-27, 01:29:04,VALID,1010.25,VALID,0,INVALID,136.31,VALID,0.112112,VALID,23.5363,VALID,112,VALID,0,
2014-10-27, 01:30:04,VALID,1010.25,VALID,0,INVALID,136.326,VALID,0.112112,VALID,23.5576,VALID,112,VALID,0,
2014-10-27, 01:31:04,VALID,1010.23,VALID,0,INVALID,136.348,VALID,0,VALID,23.5576,VALID,112,VALID,0,
2014-10-27, 01:32:04,VALID,1010.22,VALID,0,INVALID,136.326,VALID,0.112112,VALID,23.5169,VALID,112,VALID,0,
2014-10-27, 01:33:04,VALID,1010.19,VALID,0,INVALID,136.341,VALID,0.112112,VALID,23.5381,VALID,112,VALID,0,
2014-10-27, 01:34:04,VALID,1010.23,VALID,0,INVALID,136.364,VALID,0,VALID,23.5381,VALID,112,VALID,0,
2014-10-27, 01:35:04,VALID,1010.23,VALID,0,INVALID,136.31,VALID,0,VALID,23.5169,VALID,112,VALID,0,
2014-10-27, 01:36:04,VALID,1010.28,VALID,0,INVALID,136.333,VALID,0,VALID,23.5381,VALID,112,VALID,0,
2014-10-27, 01:37:04,VALID,1010.31,VALID,0,INVALID,136.28,VALID,0.112112,VALID,23.5576,VALID,112,VALID,0,
2014-10-27, 01:38:04,VALID,1010.32,VALID,0,INVALID,136.196,VALID,0.112112,VALID,23.5363,VALID,112,VALID,0,
2014-10-27, 01:39:04,VALID,1010.32,VALID,0,INVALID,136.15,VALID,0,VALID,23.5771,VALID,112,VALID,0,
2014-10-27, 01:40:04,VALID,1010.32,VALID,0,INVALID,136.127,VALID,0,VALID,23.5576,VALID,112,VALID,0,
2014-10-27, 01:41:04,VALID,1010.31,VALID,0,INVALID,136.143,VALID,0,VALID,23.5576,VALID,112,VALID,0,
2014-10-27, 01:42:04,VALID,1010.33,VALID,0,INVALID,136.15,VALID,0,VALID,23.5576,VALID,111,VALID,0,
2014-10-27, 01:43:04,VALID,1010.33,VALID,0,INVALID,136.158,VALID,0,VALID,23.5576,VALID,111,VALID,0,
2014-10-27, 01:44:04,VALID,1010.35,VALID,0,INVALID,136.249,VALID,0.112112,VALID,23.5381,VALID,111,VALID,0,
2014-10-27, 01:45:04,VALID,1010.37,VALID,0,INVALID,136.379,VALID,0,VALID,23.5186,VALID,111,VALID,0,
2014-10-27, 01:46:04,VALID,1010.4,VALID,0,INVALID,136.516,VALID,0.112112,VALID,23.4974,VALID,103,VALID,0,
2014-10-27, 01:47:04,VALID,1010.44,VALID,0,INVALID,136.547,VALID,0,VALID,23.4797,VALID,102,VALID,0,
2014-10-27, 01:48:04,VALID,1010.46,VALID,0,INVALID,136.57,VALID,0.112112,VALID,23.4602,VALID,64,VALID,0,
2014-10-27, 01:49:04,VALID,1010.47,VALID,0,INVALID,136.539,VALID,0,VALID,23.4602,VALID,16,VALID,0,
2014-10-27, 01:50:04,VALID,1010.46,VALID,0,INVALID,136.47,VALID,0,VALID,23.4407,VALID,13,VALID,0,
2014-10-27, 01:51:04,VALID,1010.49,VALID,0,INVALID,136.478,VALID,0,VALID,23.4212,VALID,55,VALID,0,
2014-10-27, 01:52:04,VALID,1010.48,VALID,0,INVALID,136.44,VALID,0,VALID,23.4017,VALID,44,VALID,0,
2014-10-27, 01:53:04,VALID,1010.49,VALID,0,INVALID,136.44,VALID,0,VALID,23.3805,VALID,43,VALID,0,
2014-10-27, 01:54:04,VALID,1010.5,VALID,0,INVALID,136.303,VALID,0,VALID,23.3805,VALID,43,VALID,0,
2014-10-27, 01:55:04,VALID,1010.53,VALID,0,INVALID,136.234,VALID,0,VALID,23.3805,VALID,43,VALID,0,
2014-10-27, 01:56:04,VALID,1010.51,VALID,0,INVALID,136.158,VALID,0.112112,VALID,23.3823,VALID,52,VALID,0,
2014-10-27, 01:57:04,VALID,1010.52,VALID,0,INVALID,136.005,VALID,0,VALID,23.3823,VALID,52,VALID,0,
2014-10-27, 01:58:04,VALID,1010.5,VALID,0,INVALID,135.845,VALID,0,VALID,23.3823,VALID,32,VALID,0,
2014-10-27, 01:59:04,VALID,1010.49,VALID,0,INVALID,135.83,VALID,0,VALID,23.361,VALID,29,VALID,0,
2014-10-27, 02:00:04,VALID,1010.45,VALID,0,INVALID,135.769,VALID,0,VALID,23.3628,VALID,29,VALID,0,
2014-10-27, 02:01:04,VALID,1010.43,VALID,0,INVALID,135.662,VALID,0,VALID,23.3433,VALID,29,VALID,0,
2014-10-27, 02:02:04,VALID,1010.39,VALID,0,INVALID,135.616,VALID,0,VALID,23.322,VALID,29,VALID,0,
2014-10-27, 02:03:04,VALID,1010.36,VALID,0,INVALID,135.54,VALID,0,VALID,23.3026,VALID,29,VALID,0,
2014-10-27, 02:04:04,VALID,1010.32,VALID,0,INVALID,135.449,VALID,0,VALID,23.3433,VALID,29,VALID,0,
2014-10-27, 02:05:04,VALID,1010.34,VALID,0,INVALID,135.319,VALID,0.112112,VALID,23.322,VALID,29,VALID,0,
2014-10-27, 02:06:04,VALID,1010.31,VALID,0,INVALID,135.205,VALID,0.112112,VALID,23.322,VALID,29,VALID,0,
2014-10-27, 02:07:04,VALID,1010.3,VALID,0,INVALID,135.113,VALID,0.112112,VALID,23.322,VALID,29,VALID,0,
2014-10-27, 02:08:04,VALID,1010.27,VALID,0,INVALID,135.044,VALID,0.112112,VALID,23.322,VALID,29,VALID,0,
2014-10-27, 02:09:04,VALID,1010.22,VALID,0,INVALID,135.014,VALID,0.112112,VALID,23.3238,VALID,29,VALID,0,
2014-10-27, 02:10:04,VALID,1010.24,VALID,0,INVALID,134.869,VALID,0.112112,VALID,23.3433,VALID,29,VALID,0,
2014-10-27, 02:11:04,VALID,1010.21,VALID,0,INVALID,134.778,VALID,0,VALID,23.3238,VALID,29,VALID,0,
2014-10-27, 02:12:04,VALID,1010.23,VALID,0,INVALID,134.717,VALID,0,VALID,23.3238,VALID,29,VALID,0,
2014-10-27, 02:13:04,VALID,1010.22,VALID,0,INVALID,134.625,VALID,0.112112,VALID,23.3026,VALID,29,VALID,0,
2014-10-27, 02:14:04,VALID,1010.24,VALID,0,INVALID,134.503,VALID,0,VALID,23.3026,VALID,29,VALID,0,
2014-10-27, 02:15:04,VALID,1010.24,VALID,0,INVALID,134.419,VALID,0,VALID,23.3238,VALID,29,VALID,0,
2014-10-27, 02:16:04,VALID,1010.24,VALID,0,INVALID,134.312,VALID,0,VALID,23.3238,VALID,29,VALID,0,
2014-10-27, 02:17:04,VALID,1010.26,VALID,0,INVALID,134.198,VALID,0.112112,VALID,23.2831,VALID,29,VALID,0,
2014-10-27, 02:18:04,VALID,1010.24,VALID,0,INVALID,134.16,VALID,0,VALID,23.3238,VALID,29,VALID,0,
2014-10-27, 02:19:04,VALID,1010.23,VALID,0,INVALID,134.068,VALID,0,VALID,23.3238,VALID,29,VALID,0,
2014-10-27, 02:20:04,VALID,1010.23,VALID,0,INVALID,133.962,VALID,0,VALID,23.3043,VALID,29,VALID,0,
2014-10-27, 02:21:04,VALID,1010.2,VALID,0,INVALID,133.87,VALID,0.112112,VALID,23.3026,VALID,29,VALID,0,
2014-10-27, 02:22:04,VALID,1010.2,VALID,0,INVALID,133.817,VALID,0,VALID,23.3043,VALID,29,VALID,0,
2014-10-27, 02:23:04,VALID,1010.19,VALID,0,INVALID,133.74,VALID,0.112112,VALID,23.3043,VALID,29,VALID,0,
2014-10-27, 02:24:04,VALID,1010.22,VALID,0,INVALID,133.641,VALID,0.112112,VALID,23.2831,VALID,29,VALID,0,
2014-10-27, 02:25:04,VALID,1010.21,VALID,0,INVALID,133.588,VALID,0,VALID,23.2848,VALID,29,VALID,0,
2014-10-27, 02:26:04,VALID,1010.22,VALID,0,INVALID,133.512,VALID,0.112112,VALID,23.2848,VALID,29,VALID,0,
2014-10-27, 02:27:04,VALID,1010.26,VALID,0,INVALID,133.397,VALID,0,VALID,23.2636,VALID,29,VALID,0,
2014-10-27, 02:28:04,VALID,1010.23,VALID,0,INVALID,133.329,VALID,0.112112,VALID,23.2654,VALID,29,VALID,0,
2014-10-27, 02:29:04,VALID,1010.23,VALID,0,INVALID,133.245,VALID,0,VALID,23.2654,VALID,29,VALID,0,
2014-10-27, 02:30:04,VALID,1010.21,VALID,0,INVALID,133.169,VALID,0,VALID,23.2654,VALID,29,VALID,0,
2014-10-27, 02:31:04,VALID,1010.2,VALID,0,INVALID,133.069,VALID,0,VALID,23.2654,VALID,29,VALID,0,
2014-10-27, 02:32:04,VALID,1010.15,VALID,0,INVALID,133.016,VALID,0.112112,VALID,23.2654,VALID,29,VALID,0,
2014-10-27, 02:33:04,VALID,1010.19,VALID,0,INVALID,132.963,VALID,0.112112,VALID,23.2654,VALID,29,VALID,0,
2014-10-27, 02:34:04,VALID,1010.17,VALID,0,INVALID,132.917,VALID,0.112112,VALID,23.2459,VALID,29,VALID,0,
2014-10-27, 02:35:04,VALID,1010.17,VALID,0,INVALID,132.848,VALID,0.112112,VALID,23.2246,VALID,29,VALID,0,
2014-10-27, 02:36:04,VALID,1010.19,VALID,0,INVALID,132.696,VALID,0,VALID,23.2441,VALID,29,VALID,0,
2014-10-27, 02:37:04,VALID,1010.17,VALID,0,INVALID,132.665,VALID,0,VALID,23.2459,VALID,29,VALID,0,
2014-10-27, 02:38:04,VALID,1010.15,VALID,0,INVALID,132.536,VALID,0.112112,VALID,23.2654,VALID,29,VALID,0,
2014-10-27, 02:39:04,VALID,1010.15,VALID,0,INVALID,132.528,VALID,0,VALID,23.2459,VALID,29,VALID,0,
2014-10-27, 02:40:04,VALID,1010.14,VALID,0,INVALID,132.436,VALID,0,VALID,23.2459,VALID,29,VALID,0,
2014-10-27, 02:41:04,VALID,1010.14,VALID,0,INVALID,132.429,VALID,0,VALID,23.2459,VALID,29,VALID,0,
2014-10-27, 02:42:04,VALID,1010.13,VALID,0,INVALID,132.299,VALID,0,VALID,23.2459,VALID,29,VALID,0,
2014-10-27, 02:43:04,VALID,1010.15,VALID,0,INVALID,132.238,VALID,0.112112,VALID,23.2459,VALID,29,VALID,0,
2014-10-27, 02:44:04,VALID,1010.17,VALID,0,INVALID,132.131,VALID,0,VALID,23.2246,VALID,29,VALID,0,
2014-10-27, 02:45:04,VALID,1010.14,VALID,0,INVALID,132.025,VALID,0.112112,VALID,23.2246,VALID,29,VALID,0,
2014-10-27, 02:46:04,VALID,1010.14,VALID,0,INVALID,131.971,VALID,0,VALID,23.2246,VALID,29,VALID,0,
2014-10-27, 02:47:04,VALID,1010.15,VALID,0,INVALID,131.849,VALID,0,VALID,23.2459,VALID,29,VALID,0,
2014-10-27, 02:48:04,VALID,1010.15,VALID,0,INVALID,131.758,VALID,0.112112,VALID,23.2459,VALID,29,VALID,0,
2014-10-27, 02:49:04,VALID,1010.18,VALID,0,INVALID,131.743,VALID,0.112112,VALID,23.2459,VALID,29,VALID,0,
2014-10-27, 02:50:04,VALID,1010.16,VALID,0,INVALID,131.605,VALID,0,VALID,23.2246,VALID,29,VALID,0,
2014-10-27, 02:51:04,VALID,1010.18,VALID,0,INVALID,131.491,VALID,0,VALID,23.2264,VALID,29,VALID,0,
2014-10-27, 02:52:04,VALID,1010.15,VALID,0,INVALID,131.43,VALID,0,VALID,23.2264,VALID,29,VALID,0,
2014-10-27, 02:53:04,VALID,1010.18,VALID,0,INVALID,131.315,VALID,0,VALID,23.2459,VALID,29,VALID,0,
2014-10-27, 02:54:04,VALID,1010.17,VALID,0,INVALID,131.232,VALID,0,VALID,23.2246,VALID,29,VALID,0,
2014-10-27, 02:55:04,VALID,1010.17,VALID,0,INVALID,131.178,VALID,0,VALID,23.2246,VALID,29,VALID,0,
2014-10-27, 02:56:04,VALID,1010.17,VALID,0,INVALID,131.087,VALID,0,VALID,23.2246,VALID,29,VALID,0,
2014-10-27, 02:57:04,VALID,1010.18,VALID,0,INVALID,131.026,VALID,0.112112,VALID,23.2459,VALID,29,VALID,0,
2014-10-27, 02:58:04,VALID,1010.15,VALID,0,INVALID,130.957,VALID,0.112112,VALID,23.2459,VALID,29,VALID,0,
2014-10-27, 02:59:04,VALID,1010.17,VALID,0,INVALID,130.843,VALID,0,VALID,23.2441,VALID,29,VALID,0,
2014-10-27, 03:00:04,VALID,1010.15,VALID,0,INVALID,130.759,VALID,0.112112,VALID,23.2654,VALID,29,VALID,0,
2014-10-27, 03:01:04,VALID,1010.17,VALID,0,INVALID,130.713,VALID,0,VALID,23.2848,VALID,29,VALID,0,
2014-10-27, 03:02:04,VALID,1010.16,VALID,0,INVALID,130.667,VALID,0,VALID,23.2636,VALID,29,VALID,0,
2014-10-27, 03:03:04,VALID,1010.16,VALID,0,INVALID,130.629,VALID,0,VALID,23.2441,VALID,29,VALID,0,
2014-10-27, 03:04:04,VALID,1010.18,VALID,0,INVALID,130.522,VALID,0.112112,VALID,23.2654,VALID,29,VALID,0,
2014-10-27, 03:05:04,VALID,1010.18,VALID,0,INVALID,130.423,VALID,0,VALID,23.2441,VALID,29,VALID,0,
2014-10-27, 03:06:04,VALID,1010.19,VALID,0,INVALID,130.339,VALID,0.112112,VALID,23.2848,VALID,29,VALID,0,
2014-10-27, 03:07:04,VALID,1010.18,VALID,0,INVALID,130.301,VALID,0,VALID,23.2848,VALID,29,VALID,0,
2014-10-27, 03:08:04,VALID,1010.18,VALID,0,INVALID,130.255,VALID,0,VALID,23.2636,VALID,29,VALID,0,
2014-10-27, 03:09:04,VALID,1010.22,VALID,0,INVALID,130.187,VALID,0,VALID,23.2654,VALID,29,VALID,0,
2014-10-27, 03:10:04,VALID,1010.21,VALID,0,INVALID,130.149,VALID,0,VALID,23.2654,VALID,29,VALID,0,
2014-10-27, 03:11:04,VALID,1010.18,VALID,0,INVALID,130.103,VALID,0,VALID,23.2654,VALID,29,VALID,0,
2014-10-27, 03:12:04,VALID,1010.17,VALID,0,INVALID,130.057,VALID,0,VALID,23.2848,VALID,29,VALID,0,
2014-10-27, 03:13:04,VALID,1010.2,VALID,0,INVALID,129.996,VALID,0,VALID,23.2848,VALID,29,VALID,0,
2014-10-27, 03:14:04,VALID,1010.2,VALID,0,INVALID,129.943,VALID,0,VALID,23.2654,VALID,29,VALID,0,
2014-10-27, 03:15:04,VALID,1010.23,VALID,0,INVALID,129.867,VALID,0,VALID,23.2848,VALID,29,VALID,0,
2014-10-27, 03:16:04,VALID,1010.21,VALID,0,INVALID,129.813,VALID,0,VALID,23.2654,VALID,29,VALID,0,
2014-10-27, 03:17:04,VALID,1010.23,VALID,0,INVALID,129.867,VALID,0,VALID,23.2866,VALID,29,VALID,0,
2014-10-27, 03:18:04,VALID,1010.22,VALID,0,INVALID,129.897,VALID,0,VALID,23.2459,VALID,29,VALID,0,
2014-10-27, 03:19:04,VALID,1010.21,VALID,0,INVALID,129.851,VALID,0,VALID,23.2264,VALID,29,VALID,0,
2014-10-27, 03:20:04,VALID,1010.2,VALID,0,INVALID,129.828,VALID,0,VALID,23.2264,VALID,29,VALID,0,
2014-10-27, 03:21:04,VALID,1010.16,VALID,0,INVALID,129.798,VALID,0,VALID,23.2264,VALID,29,VALID,0,
2014-10-27, 03:22:04,VALID,1010.14,VALID,0,INVALID,129.737,VALID,0,VALID,23.2264,VALID,29,VALID,0,
2014-10-27, 03:23:04,VALID,1010.14,VALID,0,INVALID,129.668,VALID,0,VALID,23.2264,VALID,29,VALID,0,
2014-10-27, 03:24:04,VALID,1010.08,VALID,0,INVALID,129.6,VALID,0,VALID,23.2459,VALID,29,VALID,0,
2014-10-27, 03:25:04,VALID,1010.04,VALID,0,INVALID,129.47,VALID,0,VALID,23.2459,VALID,29,VALID,0,
2014-10-27, 03:26:04,VALID,1010.04,VALID,0,INVALID,129.424,VALID,0,VALID,23.2459,VALID,29,VALID,0,
2014-10-27, 03:27:04,VALID,1010.01,VALID,0,INVALID,129.455,VALID,0,VALID,23.2459,VALID,29,VALID,0,
2014-10-27, 03:28:04,VALID,1009.95,VALID,0,INVALID,129.485,VALID,0,VALID,23.2459,VALID,29,VALID,0,
2014-10-27, 03:29:04,VALID,1009.93,VALID,0,INVALID,129.478,VALID,0,VALID,23.2459,VALID,29,VALID,0,
2014-10-27, 03:30:04,VALID,1009.93,VALID,0,INVALID,129.432,VALID,0,VALID,23.2264,VALID,29,VALID,0,
2014-10-27, 03:31:04,VALID,1009.9,VALID,0,INVALID,129.478,VALID,0,VALID,23.2069,VALID,29,VALID,0,
2014-10-27, 03:32:04,VALID,1009.9,VALID,0,INVALID,129.432,VALID,0,VALID,23.2069,VALID,29,VALID,0,
2014-10-27, 03:33:04,VALID,1009.9,VALID,0,INVALID,129.371,VALID,0,VALID,23.2069,VALID,29,VALID,0,
2014-10-27, 03:34:04,VALID,1009.9,VALID,0,INVALID,129.356,VALID,0,VALID,23.1874,VALID,29,VALID,0,
2014-10-27, 03:35:04,VALID,1009.91,VALID,0,INVALID,129.363,VALID,0,VALID,23.2087,VALID,29,VALID,0,
2014-10-27, 03:36:04,VALID,1009.87,VALID,0,INVALID,129.318,VALID,0,VALID,23.1874,VALID,29,VALID,0,
2014-10-27, 03:37:04,VALID,1009.86,VALID,0,INVALID,129.257,VALID,0,VALID,23.1874,VALID,29,VALID,0,
2014-10-27, 03:38:04,VALID,1009.87,VALID,0,INVALID,129.264,VALID,0,VALID,23.1679,VALID,29,VALID,0,
2014-10-27, 03:39:04,VALID,1009.85,VALID,0,INVALID,129.257,VALID,0,VALID,23.1679,VALID,29,VALID,0,
2014-10-27, 03:40:04,VALID,1009.84,VALID,0,INVALID,129.211,VALID,0,VALID,23.1485,VALID,29,VALID,0,
2014-10-27, 03:41:04,VALID,1009.86,VALID,0,INVALID,129.18,VALID,0,VALID,23.1485,VALID,29,VALID,0,
2014-10-27, 03:42:04,VALID,1009.83,VALID,0,INVALID,129.157,VALID,0,VALID,23.1485,VALID,29,VALID,0,
2014-10-27, 03:43:04,VALID,1009.84,VALID,0,INVALID,129.096,VALID,0,VALID,23.1485,VALID,29,VALID,0,
2014-10-27, 03:44:04,VALID,1009.85,VALID,0,INVALID,129.081,VALID,0,VALID,23.1485,VALID,29,VALID,0,
2014-10-27, 03:45:04,VALID,1009.85,VALID,0,INVALID,128.974,VALID,0,VALID,23.1697,VALID,29,VALID,0,
2014-10-27, 03:46:04,VALID,1009.86,VALID,0,INVALID,128.944,VALID,0,VALID,23.1485,VALID,29,VALID,0,
2014-10-27, 03:47:04,VALID,1009.88,VALID,0,INVALID,128.929,VALID,0,VALID,23.1502,VALID,29,VALID,0,
2014-10-27, 03:48:04,VALID,1009.86,VALID,0,INVALID,128.883,VALID,0,VALID,23.1502,VALID,29,VALID,0,
2014-10-27, 03:49:04,VALID,1009.86,VALID,0,INVALID,128.837,VALID,0,VALID,23.1485,VALID,29,VALID,0,
2014-10-27, 03:50:04,VALID,1009.88,VALID,0,INVALID,128.707,VALID,0,VALID,23.1697,VALID,29,VALID,0,
2014-10-27, 03:51:04,VALID,1009.93,VALID,0,INVALID,128.646,VALID,0,VALID,23.1679,VALID,29,VALID,0,
2014-10-27, 03:52:04,VALID,1009.94,VALID,0,INVALID,128.616,VALID,0,VALID,23.1485,VALID,29,VALID,0,